sat.trackr.live / text

‹ back to catalog

STARLINK-32363

NORAD 61678 · 2024-193T

PAYLOAD ACTIVE UNKNOWN

§ Identity

Operator
Country
US
Launch date
2024-10-26
Launch site
AFETR
Launch vehicle
Mass (kg)
RCS (m²)

Purposes: comms

External: N2YO · Heavens-Above · Gunter

§ Orbital elements

Epoch: 2026-05-25T02:36:23.146272Z

Period
93.85 min
Inclination
53.1611°
Eccentricity
0.0001419
Mean motion
15.34386551 rev/d
Perigee alt
461.8 km
Apogee alt
463.7 km
Semi-major
6,840.9 km
B*
9.4168e-6
RAAN
94.8481°
Arg perigee
97.9278°
Mean anomaly
262.1886°
Rev number
8,824

§ Raw data

STARLINK-323631 61678U 24193T   26145.10860123 -.00000058  00000+0  94168-5 0  99922 61678  53.1611  94.8481 0001419  97.9278 262.1886 15.34386551 88244

JSON: /api/v1/satellites/61678 · /tle

For live sub-satellite position, see the globe view (requires WebGL).

§ Visibility from observer

Set your observer location to see the next 7 days of passes ≥ 10°. The values pass through the URL so the page stays shareable.

No JS? Fill the form by hand. The geolocation button needs JavaScript.